Location: Unspecified
(33.3208°S, 0.0000°E)
Time: 04:46:23
(UTC+00:00)

Cosmos 220 - Visible Passes

Search period start: 04 April 2026 00:00
Search period end: 14 April 2026 00:00
Orbit: 602 x 652 km, 74.0° (Epoch: 29 March)

Date Brightness Start Highest point End Pass type
(mag) Time Alt. Az. Time Alt. Az. Time Alt. Az.
10 Apr 8.6 05:44:23 10° SE 05:46:30 13° ESE 05:48:37 10° E visible
13 Apr 8.7 05:05:23 10° SE 05:07:03 12° ESE 05:08:43 10° E visible
13 Apr 7.5 19:10:10 10° NNE 19:11:08 16° NNE 19:11:08 16° NNE visible
